Regional Weather Roundup
Issued by NWS

Home | Current Version | Previous Version | Text Only | Print | Product List | Glossary On
Versions: 1 2 3 4 5 6 7 8 9 10 11 12 13 14 15 16 17 18 19 20 21 22 23 24 25 26 27 28 29 30 31 32 33 34 35 36 37 38 39 40 41 42 43 44 45 46 47 48 49 50
000
ASUS43 KFSD 270502
RWRSD

WEATHER ROUNDUP FOR SOUTH DAKOTA
NATIONAL WEATHER SERVICE SIOUX FALLS SD
1100 PM CST THU FEB 26 2015

NOTE: "FAIR" INDICATES FEW OR NO CLOUDS BELOW 12,000 FEET WITH NO
SIGNIFICANT WEATHER AND/OR OBSTRUCTIONS TO VISIBILITY.


SDZ001>005-009-010-012>017-270600-
NORTHWEST AND NORTH CENTRAL SOUTH DAKOTA

CITY           SKY/WX    TMP DP  RH WIND       PRES   REMARKS
BUFFALO          N/A      2  -7  66 S5        30.28F WCI  -8
FAITH            N/A      5  -6  60 E3        30.41F
MOBRIDGE       CLEAR     -9 -13  83 CALM      30.47F
$$

SDZ012>016-024>037-041>051-057-063-072>074-270600-
SOUTHWEST AND SOUTH CENTRAL SOUTH DAKOTA

CITY           SKY/WX    TMP DP  RH WIND       PRES   REMARKS
RAPID CTY ARPT CLEAR     -9 -15  75 NW5       30.37F WCI -20
PIERRE         CLEAR     -1  -8  72 CALM      30.51F
CUSTER         CLEAR    -11 -16  78 N3        30.14S
ELLSWORTH AFB  CLEAR     -1 -11  63 W5        30.35F WCI -11
PHILIP         CLEAR     -5 -11  75 CALM      30.48S
PINE RIDGE     CLEAR     -2  -8  76 E3        30.37S
WINNER         FAIR       2  -8  63 CALM      30.50S
$$

SDZ004>011-016>023-039-040-270600-
NORTHEAST SOUTH DAKOTA

CITY           SKY/WX    TMP DP  RH WIND       PRES   REMARKS
ABERDEEN       CLEAR     -5 -12  72 NW7       30.54F WCI -19
WATERTOWN      CLEAR     -5 -11  75 W7        30.46F WCI -19
SISSETON         N/A     -4 -10  75 NW9       30.51F WCI -20
$$

SDZ017-020-022-023-036>040-048>070-270600-
SOUTHEAST SOUTH DAKOTA

CITY           SKY/WX    TMP DP  RH WIND       PRES   REMARKS
SIOUX FALLS    CLEAR     -5 -11  75 CALM      30.52S
HURON          PTCLDY   -13 -18  78 W9        30.55F WCI -31
MITCHELL       CLEAR     -2  -8  76 W5        30.57S WCI -12
YANKTON        CLEAR     -2  -8  78 NW6       30.58S WCI -14
$$

ABBREVIATIONS USED IN REMARKS
   TC - TEMPERATURE IN CELSIUS
  WCI - WIND CHILL INDEX
   HX - HEAT INDEX
  VSB - VISIBILITY



USA.gov is the U.S. government's official web portal to all federal, state and local government web resources and services.